�������l�o���
Date,Time,MP-1(��Sv/h),MP-2(��Sv/h),MP-3(��Sv/h),MP-4(��Sv/h),MP-5(��Sv/h),MP-6(��Sv/h),MP-7(��Sv/h),MP-8(��Sv/h),����,����(m/s),���J
2016/06/21,00:00,1.297,-,2.280,2.233,2.026,0.641,1.199,1.039,��,1.7,��
2016/06/21,00:10,1.298,-,2.278,2.237,2.027,0.643,1.200,1.039,��,3.4,��
2016/06/21,00:20,1.299,-,2.275,2.237,2.027,0.642,1.201,1.040,���쐼,3.4,��
2016/06/21,00:30,1.295,-,2.276,2.236,2.024,0.644,1.200,1.039,���쐼,4.2,��
2016/06/21,00:40,1.296,-,2.275,2.234,2.027,0.644,1.201,1.038,��,2.3,��
2016/06/21,00:50,1.295,-,2.278,2.235,2.027,0.644,1.201,1.037,��,1.2,��
2016/06/21,01:00,1.299,-,2.278,2.234,2.028,0.644,1.199,1.040,��,0.6,��
2016/06/21,01:10,1.298,-,2.279,2.233,2.026,0.643,1.200,1.038,�쐼,0.6,��
2016/06/21,01:20,1.299,-,2.275,2.234,2.026,0.642,1.202,1.039,���쐼,1.1,��
2016/06/21,01:30,1.297,-,2.276,2.233,2.025,0.643,1.200,1.037,��쐼,0.8,��
2016/06/21,01:40,1.298,-,2.276,2.236,2.021,0.644,1.200,1.038,-,CALM,��
2016/06/21,01:50,1.297,-,2.277,2.236,2.025,0.642,1.199,1.035,-,CALM,��
2016/06/21,02:00,1.297,-,2.276,2.233,2.024,0.644,1.200,1.037,-,CALM,��
2016/06/21,02:10,1.296,-,2.275,2.235,2.023,0.644,1.199,1.036,-,CALM,��
2016/06/21,02:20,1.297,-,2.273,2.236,2.024,0.644,1.198,1.038,���k��,0.8,��
2016/06/21,02:30,1.295,-,2.276,2.232,2.023,0.642,1.198,1.037,���k��,1.2,��
2016/06/21,02:40,1.299,-,2.273,2.234,2.025,0.642,1.198,1.038,�k�k��,1.2,��
2016/06/21,02:50,1.295,-,2.272,2.231,2.027,0.641,1.198,1.040,�k�k��,0.9,��
2016/06/21,03:00,1.298,-,2.276,2.232,2.025,0.644,1.201,1.037,�k�k��,2.3,��
2016/06/21,03:10,1.299,-,2.272,2.235,2.027,0.642,1.198,1.038,�k�k��,2.5,��
2016/06/21,03:20,1.296,-,2.270,2.233,2.025,0.643,1.199,1.038,�k,3.4,��
2016/06/21,03:30,1.296,-,2.271,2.234,2.026,0.642,1.200,1.040,�k��,5.1,��
2016/06/21,03:40,1.298,-,2.271,2.236,2.025,0.642,1.199,1.039,�k�k��,5.3,��
2016/06/21,03:50,1.295,-,2.275,2.236,2.024,0.641,1.199,1.038,�k�k��,5.2,��
2016/06/21,04:00,1.297,-,2.272,2.234,2.023,0.644,1.199,1.037,�k�k��,4.7,��
2016/06/21,04:10,1.297,-,2.274,2.238,2.025,0.644,1.201,1.038,�k,3.8,��
2016/06/21,04:20,1.292,-,2.272,2.231,2.023,0.643,1.200,1.040,�k,3.2,��
2016/06/21,04:30,1.297,-,2.275,2.235,2.023,0.642,1.202,1.039,�k,2.9,��
2016/06/21,04:40,1.294,-,2.271,2.233,2.021,0.643,1.202,1.038,�k�k��,1.9,��
2016/06/21,04:50,1.300,-,2.276,2.238,2.024,0.644,1.200,1.038,�k��,1.7,��
2016/06/21,05:00,1.298,-,2.275,2.238,2.020,0.642,1.200,1.040,��,1.1,��
2016/06/21,05:10,1.299,-,2.274,2.234,2.023,0.642,1.201,1.040,���쐼,1.2,��
2016/06/21,05:20,1.300,-,2.276,2.235,2.023,0.642,1.200,1.037,��쓌,1.5,��
2016/06/21,05:30,1.297,-,2.272,2.235,2.027,0.642,1.201,1.039,��,0.9,��
2016/06/21,05:40,1.297,-,2.279,2.232,2.024,0.642,1.198,1.039,��,1.5,��
2016/06/21,05:50,1.296,-,2.276,2.237,2.024,0.640,1.200,1.039,��,1.9,��
2016/06/21,06:00,1.297,-,2.275,2.239,2.027,0.640,1.199,1.041,��쓌,2.3,��
2016/06/21,06:10,1.297,-,2.273,2.239,2.028,0.641,1.199,1.038,��,1.7,��
2016/06/21,06:20,1.297,-,2.274,2.238,2.026,0.642,1.200,1.041,��쓌,1.2,��
2016/06/21,06:30,1.298,-,2.281,2.236,2.026,0.642,1.200,1.039,��쓌,1.2,��
2016/06/21,06:40,1.299,-,2.275,2.238,2.027,0.643,1.200,1.040,�쓌,1.7,��
2016/06/21,06:50,1.294,-,2.281,2.234,2.027,0.640,1.198,1.039,���쓌,1.7,��
2016/06/21,07:00,1.299,-,2.276,2.243,2.025,0.641,1.200,1.038,���쓌,2.0,��
2016/06/21,07:10,1.297,-,2.282,2.237,2.024,0.639,1.198,1.037,��쓌,1.1,��
2016/06/21,07:20,1.300,-,2.277,2.239,2.030,0.639,1.197,1.036,��쐼,0.6,��
2016/06/21,07:30,1.297,-,2.285,2.241,2.029,0.640,1.197,1.038,-,CALM,��
2016/06/21,07:40,1.300,-,2.284,2.242,2.028,0.641,1.197,1.038,-,CALM,��
2016/06/21,07:50,1.298,-,2.274,2.240,2.031,0.639,1.200,1.038,���쓌,0.8,��
2016/06/21,08:00,1.299,-,2.263,2.246,2.031,0.640,1.199,1.036,-,CALM,��
2016/06/21,08:10,1.297,-,2.236,2.242,2.031,0.640,1.200,1.036,�k,0.8,��
2016/06/21,08:20,1.295,-,2.222,2.242,2.031,0.640,1.200,1.037,�k��,0.8,��
2016/06/21,08:30,1.296,-,2.212,2.240,2.032,0.639,1.198,1.037,�k,0.6,��
2016/06/21,08:40,1.299,-,2.217,2.244,2.033,0.643,1.200,1.039,���k��,1.2,��
2016/06/21,08:50,1.297,-,2.224,2.242,2.028,0.640,1.202,1.036,��,1.4,��
2016/06/21,09:00,1.296,-,2.238,2.243,2.030,0.642,1.201,1.036,�k��,1.4,��
2016/06/21,09:10,1.295,-,2.244,2.244,2.028,0.642,1.200,1.036,�k��,1.4,��
2016/06/21,09:20,1.294,-,2.241,2.243,2.025,0.641,1.199,1.039,��,1.4,��
2016/06/21,09:30,1.292,-,2.243,2.246,2.030,0.643,1.202,1.035,��,1.2,��
2016/06/21,09:40,1.295,-,2.224,2.243,2.030,0.640,1.199,1.037,�k��,0.9,��
2016/06/21,09:50,1.296,-,2.208,2.247,2.035,0.642,1.202,1.037,���k��,0.9,��
2016/06/21,10:00,1.294,-,2.225,2.244,2.053,0.641,1.200,1.036,���쓌,1.5,��
2016/06/21,10:10,1.293,-,2.227,2.242,2.052,0.640,1.202,1.039,���쓌,1.7,��
2016/06/21,10:20,1.292,-,2.223,2.244,2.056,0.642,1.201,1.038,���쓌,0.9,��
2016/06/21,10:30,1.295,-,2.238,2.241,2.054,0.640,1.201,1.035,��,1.1,��
2016/06/21,10:40,1.297,-,2.243,2.244,2.048,0.639,1.199,1.036,���쓌,1.4,��
2016/06/21,10:50,1.296,-,2.241,2.241,2.056,0.641,1.202,1.036,���k��,1.2,��
2016/06/21,11:00,1.296,-,2.242,2.247,2.055,0.642,1.201,1.038,��,1.4,��
2016/06/21,11:10,1.297,-,2.245,2.245,2.056,0.643,1.201,1.037,���k��,1.5,��
2016/06/21,11:20,1.295,-,2.243,2.246,2.055,0.642,1.200,1.040,��,1.7,��
2016/06/21,11:30,1.293,-,2.242,2.243,2.054,0.643,1.203,1.036,��,1.9,��
2016/06/21,11:40,1.295,-,2.243,2.244,2.052,0.641,1.202,1.038,���쓌,2.3,��
2016/06/21,11:50,1.296,-,2.243,2.243,2.044,0.642,1.202,1.039,���쓌,1.4,��
2016/06/21,12:00,1.295,-,2.247,2.244,2.047,0.641,1.202,1.037,���쓌,2.0,��
2016/06/21,12:10,1.296,-,2.247,2.242,2.050,0.641,1.202,1.038,��,1.9,��
2016/06/21,12:20,1.295,-,2.243,2.244,2.047,0.641,1.202,1.037,���쓌,2.2,��
2016/06/21,12:30,1.297,-,2.243,2.246,2.046,0.641,1.203,1.037,���k��,1.4,��
2016/06/21,12:40,1.297,-,2.239,2.244,2.049,0.642,1.200,1.038,��,2.2,��
2016/06/21,12:50,1.296,-,2.242,2.248,2.050,0.642,1.201,1.037,��,2.0,��
2016/06/21,13:00,1.297,-,2.243,2.243,2.048,0.642,1.201,1.040,���쓌,2.3,��
2016/06/21,13:10,1.296,-,2.244,2.247,2.049,0.641,1.200,1.036,���쓌,2.2,��
2016/06/21,13:20,1.296,-,2.247,2.247,2.051,0.642,1.201,1.037,���쓌,1.9,��
2016/06/21,13:30,1.296,-,2.248,2.246,2.050,0.642,1.201,1.038,��,2.3,��
2016/06/21,13:40,1.299,-,2.250,2.243,2.052,0.641,1.202,1.037,��,2.2,��
2016/06/21,13:50,1.297,-,2.246,2.238,2.054,0.642,1.203,1.037,�k��,2.3,��
2016/06/21,14:00,1.299,-,2.250,2.238,2.051,0.644,1.203,1.038,���k��,2.9,��
2016/06/21,14:10,1.298,-,2.250,2.237,2.051,0.641,1.204,1.039,���k��,2.2,��
2016/06/21,14:20,1.296,-,2.250,2.242,2.042,0.642,1.202,1.038,���k��,1.9,��
2016/06/21,14:30,1.299,-,2.247,2.239,2.036,0.642,1.202,1.037,���k��,2.0,��
2016/06/21,14:40,1.297,-,2.250,2.243,2.034,0.642,1.201,1.038,���k��,2.9,��
2016/06/21,14:50,1.298,-,2.241,2.244,2.035,0.643,1.203,1.037,���k��,3.5,��
2016/06/21,15:00,1.300,-,2.260,2.244,2.034,0.644,1.202,1.039,���k��,3.3,��
2016/06/21,15:10,1.299,-,2.260,2.242,2.040,0.642,1.201,1.040,���k��,2.6,��
2016/06/21,15:20,1.299,-,2.263,2.244,2.037,0.645,1.201,1.038,�k��,3.1,��
2016/06/21,15:30,1.298,-,2.264,2.246,2.029,0.644,1.205,1.037,�k��,3.1,��
2016/06/21,15:40,1.299,-,2.266,2.247,2.024,0.643,1.202,1.039,�k�k��,2.6,��
2016/06/21,15:50,1.298,-,2.259,2.250,2.025,0.644,1.201,1.039,�k�k��,3.3,��
2016/06/21,16:00,1.297,-,2.261,2.247,2.020,0.644,1.201,1.038,�k�k��,3.4,��
2016/06/21,16:10,1.299,-,2.263,2.243,2.020,0.644,1.203,1.037,�k�k��,3.4,��
2016/06/21,16:20,1.299,-,2.262,2.249,2.017,0.643,1.202,1.038,�k�k��,2.6,��
2016/06/21,16:30,1.298,-,2.264,2.248,2.022,0.644,1.204,1.038,�k�k��,3.4,��
2016/06/21,16:40,1.296,-,2.262,2.250,2.018,0.643,1.202,1.037,�k�k��,3.4,��
2016/06/21,16:50,1.299,-,2.261,2.248,2.026,0.645,1.205,1.039,�k�k��,3.3,��
2016/06/21,17:00,1.298,-,2.265,2.251,2.040,0.642,1.202,1.037,�k�k��,3.7,��
2016/06/21,17:10,1.299,-,2.261,2.252,2.038,0.644,1.199,1.040,�k�k��,3.7,��
2016/06/21,17:20,1.298,-,2.263,2.253,2.040,0.642,1.201,1.039,�k,4.7,��
2016/06/21,17:30,1.298,-,2.261,2.251,2.042,0.642,1.203,1.039,�k�k��,3.4,��
2016/06/21,17:40,1.298,-,2.264,2.253,2.041,0.643,1.201,1.038,�k�k��,4.0,��
2016/06/21,17:50,1.300,-,2.264,2.253,2.040,0.643,1.201,1.038,�k�k��,4.3,��
2016/06/21,18:00,1.298,-,2.262,2.253,2.041,0.643,1.201,1.040,�k�k��,3.4,��
2016/06/21,18:10,1.300,-,2.265,2.248,2.041,0.643,1.202,1.040,�k,3.9,��
2016/06/21,18:20,1.301,-,2.264,2.253,2.043,0.642,1.201,1.039,�k,4.0,��
2016/06/21,18:30,1.301,-,2.265,2.252,2.040,0.642,1.202,1.039,�k�k��,3.8,��
2016/06/21,18:40,1.299,-,2.265,2.252,2.039,0.640,1.202,1.039,�k�k��,3.1,��
2016/06/21,18:50,1.300,-,2.264,2.253,2.043,0.641,1.200,1.039,�k,3.9,��
2016/06/21,19:00,1.300,-,2.267,2.252,2.042,0.643,1.201,1.040,�k,3.3,��
2016/06/21,19:10,1.301,-,2.267,2.253,2.041,0.644,1.201,1.039,�k,2.8,��
2016/06/21,19:20,1.301,-,2.270,2.251,2.040,0.644,1.202,1.043,�k�k��,2.6,��
2016/06/21,19:30,1.302,-,2.268,2.252,2.040,0.643,1.201,1.042,�k�k��,4.8,��
2016/06/21,19:40,1.302,-,2.265,2.254,2.037,0.642,1.201,1.041,�k�k��,4.7,��
2016/06/21,19:50,1.302,-,2.267,2.253,2.042,0.643,1.202,1.041,�k�k��,4.9,��
2016/06/21,20:00,1.304,-,2.268,2.252,2.039,0.642,1.202,1.039,�k,4.7,��
2016/06/21,20:10,1.301,-,2.271,2.250,2.043,0.644,1.203,1.040,�k�k��,4.9,��
2016/06/21,20:20,1.303,-,2.267,2.255,2.042,0.643,1.201,1.041,�k�k��,4.6,��
2016/06/21,20:30,1.303,-,2.266,2.254,2.043,0.643,1.204,1.041,�k�k��,5.0,��
2016/06/21,20:40,1.304,-,2.266,2.252,2.041,0.642,1.202,1.041,�k,4.4,��
2016/06/21,20:50,1.301,-,2.268,2.254,2.043,0.643,1.200,1.041,�k,4.5,��
2016/06/21,21:00,1.302,-,2.266,2.256,2.040,0.641,1.202,1.040,�k,3.1,��
2016/06/21,21:10,1.302,-,2.268,2.254,2.042,0.642,1.204,1.040,�k,2.0,��
2016/06/21,21:20,1.301,-,2.266,2.255,2.041,0.644,1.204,1.041,�k�k��,2.2,��
2016/06/21,21:30,1.302,-,2.266,2.254,2.039,0.644,1.202,1.040,�k��,2.8,��
2016/06/21,21:40,1.302,-,2.266,2.257,2.043,0.643,1.205,1.039,�k�k��,2.6,��
2016/06/21,21:50,1.303,-,2.265,2.254,2.041,0.644,1.205,1.042,�k,2.9,��
2016/06/21,22:00,1.304,-,2.267,2.254,2.041,0.642,1.203,1.040,�k�k��,2.8,��
2016/06/21,22:10,1.303,-,2.267,2.253,2.044,0.643,1.202,1.041,�k��,2.5,��
2016/06/21,22:20,1.300,-,2.267,2.252,2.042,0.644,1.202,1.042,�k��,3.6,��
2016/06/21,22:30,1.301,-,2.269,2.255,2.043,0.645,1.201,1.042,�k��,4.6,��
2016/06/21,22:40,1.302,-,2.267,2.248,2.041,0.643,1.204,1.042,�k��,4.2,��
2016/06/21,22:50,1.302,-,2.266,2.253,2.043,0.643,1.205,1.040,�k��,4.5,��
2016/06/21,23:00,1.303,-,2.266,2.254,2.039,0.643,1.202,1.041,�k�k��,4.6,��
2016/06/21,23:10,1.302,-,2.266,2.257,2.042,0.644,1.203,1.039,�k�k��,4.0,��
2016/06/21,23:20,1.303,-,2.268,2.256,2.040,0.643,1.202,1.042,�k�k��,3.8,��
2016/06/21,23:30,1.303,-,2.268,2.254,2.041,0.643,1.203,1.041,�k�k��,3.3,��
2016/06/21,23:40,1.303,-,2.264,2.254,2.039,0.645,1.202,1.043,�k�k��,3.8,��
2016/06/21,23:50,1.302,-,2.266,2.257,2.040,0.642,1.201,1.041,�k,3.8,��
